Canby, MN

12:19 AM CST on February 27, 2017 (GMT -0600)
Canby

Weather History for KCNB - February, 2014

Change the Weather History Date:

Tuesday, February 11, 2014

  Actual Average (KMML) Record (KMML)
Temperature  
Mean Temperature 7 °F -  
Max Temperature 24 °F 25 °F 56 °F (1987)
Min Temperature -10 °F 7 °F -26 °F (1988)
Degree Days  
Heating Degree Days 58    
Moisture  
Dew Point 6 °F    
Average Humidity 78    
Maximum Humidity 83    
Minimum Humidity 68    
Precipitation  
Precipitation 0.00 in - - ()
Sea Level Pressure  
Sea Level Pressure 30.10 in    
Wind  
Wind Speed 8 mph (South)    
Max Wind Speed 23 mph    
Max Gust Speed 32 mph    
Visibility 10 miles    
Events      
Averages and records for this station are not official NWS values.
T = Trace of Precipitation, MM = Missing Value Source: NWS Daily Summary

Daily Weather History Graph

Daily Weather History Graph

Search for Another Location

Airport or City:

Trip Planner

Search our weather history database for the weather conditions in past years. The results will help you decide how hot, cold, wet, or windy it might be!

Date:

Astronomy

Feb. 11, 2014 Rise Set
Actual Time 7:31 AM CST 5:47 PM CST
Civil Twilight 7:00 AM CST 6:18 PM CST
Nautical Twilight 6:26 AM CST 6:52 PM CST
Astronomical Twilight 5:52 AM CST 7:26 PM CST
Moon 3:06 PM CST (2/11) 5:12 AM CST (2/11)
Length of Visible Light 11h 17m
Length of Day
10h 16m
Waxing Gibbous, 91% of the Moon is Illuminated
Feb 11
Waxing Gibbous
Feb 14
Full
Feb 22
Last Quarter
Mar 1
New
Mar 8
First Quarter

Hourly Weather History & Observations

Time (CST) Temp. Windchill Dew Point Humidity Pressure Visibility Wind Dir Wind Speed Gust Speed Precip Events Conditions
12:14 AM -8.3 °F -17.3 °F -13.2 °F 79% 30.41 in 10.0 mi SSE 3.5 mph - N/A   Clear
12:35 AM -9.0 °F -20.4 °F -13.7 °F 80% 30.40 in 10.0 mi SE 4.6 mph - N/A   Clear
12:54 AM -9.4 °F - -14.3 °F 79% 30.39 in 10.0 mi Calm Calm - N/A   Clear
1:14 AM -9.2 °F - -14.3 °F 79% 30.38 in 10.0 mi Calm Calm - N/A   Clear
1:35 AM -9.8 °F - -14.4 °F 80% 30.38 in 10.0 mi Calm Calm - N/A   Clear
1:54 AM -10.5 °F -19.8 °F -15.3 °F 79% 30.37 in 10.0 mi SSE 3.5 mph - N/A   Clear
2:14 AM -10.3 °F -19.6 °F -15.0 °F 80% 30.36 in 10.0 mi SSE 3.5 mph - N/A   Clear
2:34 AM -10.8 °F -20.2 °F -15.9 °F 78% 30.36 in 10.0 mi SSE 3.5 mph - N/A   Clear
2:54 AM -9.6 °F - -14.4 °F 79% 30.36 in 10.0 mi Calm Calm - N/A   Clear
3:14 AM -10.7 °F -22.3 °F -15.7 °F 78% 30.34 in 10.0 mi SSE 4.6 mph - N/A   Clear
3:34 AM -10.3 °F -23.8 °F -15.0 °F 80% 30.33 in 10.0 mi SE 5.8 mph - N/A   Clear
3:54 AM -9.9 °F - -14.6 °F 80% 30.32 in 10.0 mi Calm Calm - N/A   Clear
4:14 AM -8.9 °F -18.0 °F -14.3 °F 77% 30.32 in 10.0 mi South 3.5 mph - N/A   Clear
4:35 AM -7.6 °F -16.5 °F -13.0 °F 77% 30.31 in 10.0 mi SE 3.5 mph - N/A   Clear
4:55 AM -7.6 °F -16.5 °F -13.0 °F 77% 30.30 in 10.0 mi SE 3.5 mph - N/A   Clear
5:14 AM -7.6 °F -20.6 °F -12.8 °F 78% 30.29 in 10.0 mi SE 5.8 mph - N/A   Clear
5:35 AM -5.6 °F -22.2 °F -10.7 °F 79% 30.28 in 10.0 mi SE 9.2 mph - N/A   Clear
5:54 AM -4.2 °F -18.0 °F -9.6 °F 78% 30.27 in 10.0 mi SE 6.9 mph - N/A   Clear
6:14 AM -3.3 °F -13.7 °F -7.8 °F 81% 30.26 in 10.0 mi South 4.6 mph - N/A   Scattered Clouds
6:35 AM 4.1 °F -8.0 °F -1.5 °F 78% 30.24 in 10.0 mi SSE 6.9 mph - N/A   Mostly Cloudy
6:54 AM 6.4 °F -7.3 °F 0.9 °F 78% 30.23 in 10.0 mi South 9.2 mph - N/A   Mostly Cloudy
7:14 AM 7.5 °F -8.4 °F 1.4 °F 76% 30.21 in 10.0 mi South 12.7 mph 20.7 mph N/A   Overcast
7:34 AM 7.7 °F -8.9 °F 1.8 °F 77% 30.21 in 10.0 mi South 13.8 mph 19.6 mph N/A   Overcast
7:55 AM 8.1 °F -5.3 °F 2.1 °F 77% 30.21 in 10.0 mi South 9.2 mph 16.1 mph N/A   Overcast
8:14 AM 8.6 °F -5.5 °F 2.3 °F 76% 30.21 in 10.0 mi South 10.4 mph 18.4 mph N/A   Overcast
8:34 AM 8.8 °F -6.1 °F 2.5 °F 76% 30.20 in 10.0 mi South 11.5 mph 17.3 mph N/A   Overcast
8:54 AM 9.5 °F -4.4 °F 3.2 °F 76% 30.20 in 10.0 mi South 10.4 mph 17.3 mph N/A   Overcast
9:15 AM 10.9 °F -3.4 °F 4.1 °F 74% 30.18 in 10.0 mi South 11.5 mph 17.3 mph N/A   Overcast
9:34 AM 11.3 °F -2.9 °F 4.6 °F 75% 30.18 in 10.0 mi South 11.5 mph 16.1 mph N/A   Mostly Cloudy
9:54 AM 12.7 °F -3.6 °F 5.7 °F 74% 30.16 in 10.0 mi South 16.1 mph 23.0 mph N/A   Scattered Clouds
10:14 AM 13.8 °F -1.1 °F 6.6 °F 73% 30.15 in 10.0 mi South 13.8 mph 26.5 mph N/A   Clear
10:34 AM 14.4 °F -2.0 °F 7.2 °F 73% 30.14 in 10.0 mi South 17.3 mph 20.7 mph N/A   Clear
10:54 AM 15.3 °F 0.8 °F 7.9 °F 73% 30.14 in 10.0 mi South 13.8 mph 25.3 mph N/A   Clear
10:59 AM 15.6 °F -0.4 °F 8.1 °F 72% 30.13 in 10.0 mi South 17.3 mph 26.5 mph N/A   Clear
11:25 AM 15.8 °F 2.1 °F 8.6 °F 73% 30.11 in 10.0 mi South 12.7 mph 25.3 mph N/A   Overcast
11:45 AM 17.6 °F 0.9 °F 8.6 °F 68% 30.09 in 10.0 mi South 20.7 mph 32.2 mph N/A   Mostly Cloudy
12:05 PM 17.6 °F 2.7 °F 10.4 °F 73% 30.07 in 10.0 mi South 16.1 mph 27.6 mph N/A   Overcast
12:25 PM 17.6 °F 2.2 °F 10.4 °F 73% 30.05 in 10.0 mi South 17.3 mph 23.0 mph N/A   Overcast
12:45 PM 17.6 °F 3.7 °F 12.2 °F 79% 30.04 in 7.0 mi SSW 13.8 mph 23.0 mph N/A   Overcast
1:05 PM 19.4 °F 4.1 °F 12.2 °F 74% 30.02 in 10.0 mi South 18.4 mph 24.2 mph N/A   Overcast
1:25 PM 19.4 °F 4.1 °F 12.2 °F 74% 30.01 in 7.0 mi SSW 18.4 mph 28.8 mph N/A   Overcast
1:45 PM 19.4 °F 3.2 °F 14.0 °F 80% 29.99 in 7.0 mi SSW 20.7 mph 27.6 mph N/A   Overcast
2:05 PM 19.4 °F 2.8 °F 14.0 °F 80% 29.97 in 7.0 mi South 21.9 mph 28.8 mph N/A   Overcast
2:25 PM 19.4 °F 2.5 °F 14.0 °F 80% 29.97 in 7.0 mi SSW 23.0 mph 29.9 mph N/A   Overcast
2:45 PM 19.4 °F 5.0 °F 14.0 °F 80% 29.96 in 7.0 mi SSW 16.1 mph 28.8 mph N/A   Overcast
3:05 PM 19.4 °F 7.9 °F 14.0 °F 80% 29.96 in 10.0 mi South 10.4 mph 25.3 mph N/A   Overcast
3:25 PM 21.2 °F 8.9 °F 14.0 °F 74% 29.95 in 10.0 mi South 12.7 mph 27.6 mph N/A   Overcast
3:45 PM 21.2 °F 8.3 °F 15.8 °F 80% 29.95 in 10.0 mi South 13.8 mph - N/A   Overcast
4:09 PM 21.0 °F 7.1 °F 15.8 °F 80% 29.92 in 10.0 mi South 16.1 mph 23.0 mph N/A   Overcast
4:14 PM 21.0 °F 7.6 °F 15.8 °F 80% 29.93 in 10.0 mi South 15.0 mph 23.0 mph N/A   Overcast
4:34 PM 21.2 °F 10.1 °F 15.8 °F 80% 29.92 in 10.0 mi South 10.4 mph 19.6 mph N/A   Overcast
4:54 PM 21.2 °F 10.1 °F 15.8 °F 80% 29.92 in 10.0 mi SSE 10.4 mph 17.3 mph N/A   Overcast
5:14 PM 21.4 °F 11.1 °F 16.0 °F 80% 29.92 in 10.0 mi SSE 9.2 mph 23.0 mph N/A   Overcast
5:35 PM 21.7 °F 10.8 °F 16.2 °F 79% 29.92 in 10.0 mi SSE 10.4 mph - N/A   Overcast
5:54 PM 22.1 °F 11.3 °F 16.7 °F 80% 29.91 in 10.0 mi SSE 10.4 mph 17.3 mph N/A   Overcast
6:15 PM 22.1 °F 12.0 °F 16.7 °F 80% 29.91 in 10.0 mi SSE 9.2 mph - N/A   Overcast
6:34 PM 22.3 °F 11.5 °F 17.1 °F 80% 29.91 in 10.0 mi SSE 10.4 mph - N/A   Overcast
6:55 PM 23.0 °F 13.1 °F 17.4 °F 79% 29.90 in 10.0 mi South 9.2 mph - N/A   Overcast
7:14 PM 23.5 °F 17.6 °F 18.0 °F 79% 29.92 in 10.0 mi SSW 4.6 mph - N/A   Overcast
7:35 PM 24.3 °F 13.3 °F 18.5 °F 79% 29.91 in 10.0 mi SSW 11.5 mph - N/A   Overcast
7:54 PM 24.8 °F 14.6 °F 19.2 °F 79% 29.91 in 10.0 mi SSW 10.4 mph 18.4 mph N/A   Overcast
8:14 PM 24.8 °F 14.6 °F 19.4 °F 80% 29.91 in 10.0 mi SSW 10.4 mph 18.4 mph N/A   Mostly Cloudy
8:35 PM 24.8 °F 16.9 °F 19.4 °F 80% 29.92 in 10.0 mi South 6.9 mph - N/A   Mostly Cloudy
8:54 PM 24.8 °F 12.9 °F 19.4 °F 80% 29.91 in 10.0 mi SSW 13.8 mph 18.4 mph N/A   Overcast
9:14 PM 24.8 °F 16.1 °F 19.4 °F 80% 29.91 in 10.0 mi SSW 8.1 mph - N/A   Overcast
9:34 PM 24.6 °F - 19.2 °F 80% 29.91 in 10.0 mi Calm Calm - N/A   Scattered Clouds
9:55 PM 23.9 °F 15.8 °F 18.9 °F 81% 29.91 in 10.0 mi SSW 6.9 mph - N/A   Clear
10:14 PM 23.9 °F - 18.9 °F 81% 29.93 in 10.0 mi Calm Calm - N/A   Clear
10:34 PM 23.7 °F 13.3 °F 18.5 °F 80% 29.93 in 10.0 mi SW 10.4 mph - N/A   Clear
10:55 PM 23.9 °F 15.8 °F 19.0 °F 82% 29.94 in 10.0 mi WSW 6.9 mph - N/A   Mostly Cloudy
11:14 PM 23.9 °F - 19.2 °F 82% 29.95 in 10.0 mi Calm Calm - N/A   Overcast
11:34 PM 23.9 °F 16.8 °F 19.2 °F 82% 29.95 in 10.0 mi SW 5.8 mph - N/A   Overcast
11:55 PM 23.9 °F 15.8 °F 19.4 °F 83% 29.95 in 10.0 mi SW 6.9 mph - N/A   Overcast